Location: Boiro
(42.6475°N, 8.8834°W)
Time: 14:23:26
(UTC+02:00)

Explorer 7 - Pass Details

Date: 27 June 2022
Orbit: 482 x 668 km, 50.3° (Epoch: 15 August)

Event Time Altitude Azimuth Distance (km) Brightness Sun altitude
Exits shadow 01:17:47 11° 85° (E) 1,984 9.5 -21.4°
Drops below altitude 10° 01:17:56 10° 83° (E) 2,030 9.6 -21.5°
Sets 01:20:45 0° 68° (ENE) 2,948 10.6 -21.6°
